Time,TemperatureF,DewpointF,PressureIn,WindDirection,WindDirectionDegrees,WindSpeedMPH,WindSpeedGustMPH,Humidity,HourlyPrecipIn,Conditions,Clouds,dailyrainin,SoftwareType,DateUTC
2013-10-19 00:00:00,59.7,55.8,30.00,WNW,303,0.0,0.0,87,0.00,,---,0.00,VWS V14.01,2013-10-19 07:00:00,
2013-10-19 00:27:00,57.3,54.4,29.99,SW,227,3.0,4.0,90,0.00,,---,0.00,VWS V14.01,2013-10-19 07:27:00,
2013-10-19 00:30:00,58.6,55.1,29.99,NW,305,0.0,2.0,88,0.00,,---,0.00,VWS V14.01,2013-10-19 07:30:00,
2013-10-19 01:00:00,58.4,55.8,30.00,North,10,2.0,3.0,91,0.00,,---,0.00,VWS V14.01,2013-10-19 08:00:00,
2013-10-19 01:30:00,57.3,54.4,29.99,SW,227,3.0,4.0,90,0.00,,---,0.00,VWS V14.01,2013-10-19 08:30:00,
2013-10-19 03:57:00,61.3,60.4,30.00,SW,229,0.0,4.0,97,0.00,,---,0.00,VWS V14.01,2013-10-19 10:57:00,
2013-10-19 04:00:00,61.3,60.4,30.00,SW,229,0.0,4.0,97,0.00,,---,0.00,VWS V14.01,2013-10-19 11:00:00,
2013-10-19 04:27:00,61.2,60.3,30.00,SW,229,0.0,2.0,97,0.00,,---,0.00,VWS V14.01,2013-10-19 11:27:00,
2013-10-19 04:30:00,61.2,60.3,30.00,SW,229,0.0,2.0,97,0.00,,---,0.00,VWS V14.01,2013-10-19 11:30:00,
2013-10-19 04:57:00,60.7,59.8,30.00,SW,227,1.0,1.0,97,0.00,,---,0.00,VWS V14.01,2013-10-19 11:57:00,
2013-10-19 05:00:00,61.3,60.4,30.00,SW,229,0.0,4.0,97,0.00,,---,0.00,VWS V14.01,2013-10-19 12:00:00,
2013-10-19 05:27:00,60.2,59.3,30.00,SW,225,0.0,1.0,97,0.00,,---,0.00,VWS V14.01,2013-10-19 12:27:00,
2013-10-19 05:30:00,60.2,59.3,30.00,SW,225,0.0,1.0,97,0.00,,---,0.00,VWS V14.01,2013-10-19 12:30:00,
2013-10-19 06:00:00,59.8,59.2,30.01,North,10,0.0,1.0,98,0.00,,---,0.00,VWS V14.01,2013-10-19 13:00:00,
2013-10-19 06:30:00,60.2,59.3,30.00,SW,225,0.0,1.0,97,0.00,,---,0.00,VWS V14.01,2013-10-19 13:30:00,
2013-10-19 07:00:00,59.8,59.2,30.01,North,10,0.0,1.0,98,0.00,,---,0.00,VWS V14.01,2013-10-19 14:00:00,
2013-10-19 07:57:00,58.5,58.2,30.02,North,10,0.0,0.0,99,0.00,,---,0.00,VWS V14.01,2013-10-19 14:57:00,
2013-10-19 08:00:00,58.5,58.2,30.02,North,10,0.0,0.0,99,0.00,,---,0.00,VWS V14.01,2013-10-19 15:00:00,
2013-10-19 08:27:00,61.2,60.3,30.03,SW,230,0.0,2.0,97,0.00,,---,0.00,VWS V14.01,2013-10-19 15:27:00,
2013-10-19 08:30:00,61.2,60.3,30.03,SW,230,0.0,2.0,97,0.00,,---,0.00,VWS V14.01,2013-10-19 15:30:00,
2013-10-19 08:57:00,62.2,59.5,30.03,SW,231,0.0,2.0,91,0.00,,---,0.00,VWS V14.01,2013-10-19 15:57:00,
2013-10-19 09:00:00,58.5,58.2,30.02,North,10,0.0,0.0,99,0.00,,---,0.00,VWS V14.01,2013-10-19 16:00:00,
2013-10-19 09:27:00,67.5,59.7,30.03,SW,230,0.0,2.0,76,0.00,,---,0.00,VWS V14.01,2013-10-19 16:27:00,
2013-10-19 09:30:00,61.2,60.3,30.03,SW,230,0.0,2.0,97,0.00,,---,0.00,VWS V14.01,2013-10-19 16:30:00,
2013-10-19 09:57:00,71.7,58.0,30.04,SW,227,0.0,1.0,62,0.00,,---,0.00,VWS V14.01,2013-10-19 16:57:00,
2013-10-19 10:00:00,62.2,59.5,30.03,SW,231,0.0,2.0,91,0.00,,---,0.00,VWS V14.01,2013-10-19 17:00:00,
2013-10-19 10:27:00,74.5,59.7,30.04,South,174,0.0,0.0,60,0.00,,---,0.00,VWS V14.01,2013-10-19 17:27:00,
2013-10-19 10:30:00,67.5,59.7,30.03,SW,230,0.0,2.0,76,0.00,,---,0.00,VWS V14.01,2013-10-19 17:30:00,
2013-10-19 10:57:00,73.5,61.5,30.03,SW,215,0.0,0.0,66,0.00,,---,0.00,VWS V14.01,2013-10-19 17:57:00,
2013-10-19 11:00:00,71.7,58.0,30.04,SW,227,0.0,1.0,62,0.00,,---,0.00,VWS V14.01,2013-10-19 18:00:00,
2013-10-19 11:27:00,74.2,63.0,30.03,South,176,0.0,0.0,68,0.00,,---,0.00,VWS V14.01,2013-10-19 18:27:00,
2013-10-19 11:30:00,74.5,59.7,30.04,South,174,0.0,0.0,60,0.00,,---,0.00,VWS V14.01,2013-10-19 18:30:00,
2013-10-19 11:57:00,75.1,63.8,30.03,South,175,0.0,0.0,68,0.00,,---,0.00,VWS V14.01,2013-10-19 18:57:00,
2013-10-19 12:00:00,75.1,63.8,30.03,South,175,0.0,0.0,68,0.00,,---,0.00,VWS V14.01,2013-10-19 19:00:00,
2013-10-19 12:27:00,72.6,63.1,30.02,SE,142,0.0,0.0,72,0.00,,---,0.00,VWS V14.01,2013-10-19 19:27:00,
2013-10-19 12:30:00,74.2,63.0,30.03,South,176,0.0,0.0,68,0.00,,---,0.00,VWS V14.01,2013-10-19 19:30:00,
2013-10-19 12:57:00,70.4,62.8,30.01,SSE,167,0.0,0.0,77,0.00,,---,0.00,VWS V14.01,2013-10-19 19:57:00,
2013-10-19 13:00:00,75.1,63.8,30.03,South,175,0.0,0.0,68,0.00,,---,0.00,VWS V14.01,2013-10-19 20:00:00,
2013-10-19 13:27:00,71.2,63.3,30.00,South,169,0.0,0.0,76,0.00,,---,0.00,VWS V14.01,2013-10-19 20:27:00,
2013-10-19 13:30:00,72.6,63.1,30.02,SE,142,0.0,0.0,72,0.00,,---,0.00,VWS V14.01,2013-10-19 20:30:00,
2013-10-19 13:57:00,71.3,63.0,29.99,SSE,158,0.0,0.0,75,0.00,,---,0.00,VWS V14.01,2013-10-19 20:57:00,
2013-10-19 14:00:00,70.4,62.8,30.01,SSE,167,0.0,0.0,77,0.00,,---,0.00,VWS V14.01,2013-10-19 21:00:00,
2013-10-19 14:27:00,72.5,61.8,29.98,SSE,152,0.0,0.0,69,0.00,,---,0.00,VWS V14.01,2013-10-19 21:27:00,
2013-10-19 14:30:00,71.2,63.3,30.00,South,169,0.0,0.0,76,0.00,,---,0.00,VWS V14.01,2013-10-19 21:30:00,
2013-10-19 14:57:00,73.7,62.9,29.98,SSE,165,0.0,0.0,69,0.00,,---,0.00,VWS V14.01,2013-10-19 21:57:00,
2013-10-19 15:00:00,71.3,63.0,29.99,SSE,158,0.0,0.0,75,0.00,,---,0.00,VWS V14.01,2013-10-19 22:00:00,
2013-10-19 15:27:00,73.0,62.7,29.97,SSE,165,0.0,0.0,70,0.00,,---,0.00,VWS V14.01,2013-10-19 22:27:00,
2013-10-19 15:30:00,72.5,61.8,29.98,SSE,152,0.0,0.0,69,0.00,,---,0.00,VWS V14.01,2013-10-19 22:30:00,
2013-10-19 15:57:00,76.0,53.8,29.97,WNW,292,0.0,0.0,46,0.00,,---,0.00,VWS V14.01,2013-10-19 22:57:00,
2013-10-19 16:00:00,73.7,62.9,29.98,SSE,165,0.0,0.0,69,0.00,,---,0.00,VWS V14.01,2013-10-19 23:00:00,
2013-10-19 16:27:00,78.4,50.7,29.97,West,271,0.0,0.0,38,0.00,,---,0.00,VWS V14.01,2013-10-19 23:27:00,
2013-10-19 16:30:00,73.0,62.7,29.97,SSE,165,0.0,0.0,70,0.00,,---,0.00,VWS V14.01,2013-10-19 23:30:00,
2013-10-19 16:57:00,78.5,52.9,29.97,West,269,0.0,0.0,41,0.00,,---,0.00,VWS V14.01,2013-10-19 23:57:00,
2013-10-19 17:00:00,76.0,53.8,29.97,WNW,292,0.0,0.0,46,0.00,,---,0.00,VWS V14.01,2013-10-20 00:00:00,
2013-10-19 17:27:00,76.7,47.0,29.97,West,264,0.0,0.0,35,0.00,,---,0.00,VWS V14.01,2013-10-20 00:27:00,
2013-10-19 17:30:00,78.4,50.7,29.97,West,271,0.0,0.0,38,0.00,,---,0.00,VWS V14.01,2013-10-20 00:30:00,
2013-10-19 17:57:00,74.7,50.7,29.98,West,267,0.0,0.0,43,0.00,,---,0.00,VWS V14.01,2013-10-20 00:57:00,
2013-10-19 18:00:00,78.5,52.9,29.97,West,269,0.0,0.0,41,0.00,,---,0.00,VWS V14.01,2013-10-20 01:00:00,
2013-10-19 18:30:00,76.7,47.0,29.97,West,264,0.0,0.0,35,0.00,,---,0.00,VWS V14.01,2013-10-20 01:30:00,
2013-10-19 19:00:00,74.7,50.7,29.98,West,267,0.0,0.0,43,0.00,,---,0.00,VWS V14.01,2013-10-20 02:00:00,